Time,TemperatureF,DewpointF,PressureIn,WindDirection,WindDirectionDegrees,WindSpeedMPH,WindSpeedGustMPH,Humidity,HourlyPrecipIn,Conditions,Clouds,dailyrainin,SolarRadiationWatts/m^2,SoftwareType,DateUTC
2013-08-04 00:00:00,56.0,52.0,-100.00,NW,315,1.0,-999.0,87,-99.99,,,-99.99,0.000000,,2013-08-04 04:00:00,
2013-08-04 00:32:00,56.0,52.0,-100.00,NW,315,1.0,-999.0,87,-99.99,,,-99.99,0.000000,,2013-08-04 04:32:00,
2013-08-04 00:42:00,56.0,52.0,-100.00,NW,315,1.0,-999.0,87,-99.99,,,-99.99,0.000000,,2013-08-04 04:42:00,
2013-08-04 00:52:00,56.0,52.0,-100.00,NW,315,1.0,-999.0,87,-99.99,,,-99.99,0.000000,,2013-08-04 04:52:00,
2013-08-04 01:00:00,57.0,54.0,-100.00,NW,315,3.0,-999.0,88,-99.99,,,-99.99,0.000000,,2013-08-04 05:00:00,
2013-08-04 01:32:00,57.0,54.0,-100.00,NW,315,3.0,-999.0,88,-99.99,,,-99.99,0.000000,,2013-08-04 05:32:00,
2013-08-04 01:42:00,57.0,54.0,-100.00,NW,315,3.0,-999.0,88,-99.99,,,-99.99,0.000000,,2013-08-04 05:42:00,
2013-08-04 01:52:00,57.0,54.0,-100.00,NW,315,3.0,-999.0,88,-99.99,,,-99.99,0.000000,,2013-08-04 05:52:00,
2013-08-04 02:00:00,58.0,53.0,-100.00,WNW,292,2.0,-999.0,83,-99.99,,,-99.99,0.000000,,2013-08-04 06:00:00,
2013-08-04 02:43:00,58.0,53.0,-100.00,WNW,292,2.0,-999.0,83,-99.99,,,-99.99,0.000000,,2013-08-04 06:43:00,
2013-08-04 02:52:00,58.0,53.0,-100.00,WNW,292,2.0,-999.0,83,-99.99,,,-99.99,0.000000,,2013-08-04 06:52:00,
2013-08-04 03:00:00,56.0,53.0,-100.00,WNW,292,1.0,-999.0,87,-99.99,,,-99.99,0.000000,,2013-08-04 07:00:00,
2013-08-04 03:42:00,56.0,53.0,-100.00,WNW,292,1.0,-999.0,87,-99.99,,,-99.99,0.000000,,2013-08-04 07:42:00,
2013-08-04 03:52:00,56.0,53.0,-100.00,WNW,292,1.0,-999.0,87,-99.99,,,-99.99,0.000000,,2013-08-04 07:52:00,
2013-08-04 04:00:00,55.0,52.0,-100.00,NW,315,1.0,-999.0,89,-99.99,,,-99.99,0.000000,,2013-08-04 08:00:00,
2013-08-04 04:43:00,55.0,52.0,-100.00,NW,315,1.0,-999.0,89,-99.99,,,-99.99,0.000000,,2013-08-04 08:43:00,
2013-08-04 04:53:00,55.0,52.0,-100.00,NW,315,1.0,-999.0,89,-99.99,,,-99.99,0.000000,,2013-08-04 08:53:00,
2013-08-04 05:00:00,53.0,51.0,-100.00,NNW,337,0.0,-999.0,92,-99.99,,,-99.99,0.000000,,2013-08-04 09:00:00,
2013-08-04 05:43:00,53.0,51.0,-100.00,NNW,337,0.0,-999.0,92,-99.99,,,-99.99,0.000000,,2013-08-04 09:43:00,
2013-08-04 05:52:00,53.0,51.0,-100.00,NNW,337,0.0,-999.0,92,-99.99,,,-99.99,0.000000,,2013-08-04 09:52:00,
2013-08-04 06:00:00,52.0,51.0,-100.00,NW,315,1.0,-999.0,94,-99.99,,,-99.99,0.000000,,2013-08-04 10:00:00,
2013-08-04 06:32:00,52.0,51.0,-100.00,NW,315,1.0,-999.0,94,-99.99,,,-99.99,0.000000,,2013-08-04 10:32:00,
2013-08-04 06:43:00,52.0,51.0,-100.00,NW,315,1.0,-999.0,94,-99.99,,,-99.99,0.000000,,2013-08-04 10:43:00,
2013-08-04 06:53:00,52.0,51.0,-100.00,NW,315,1.0,-999.0,94,-99.99,,,-99.99,0.000000,,2013-08-04 10:53:00,
2013-08-04 07:00:00,53.0,51.0,-100.00,West,270,1.0,-999.0,95,-99.99,,,-99.99,5.800000,,2013-08-04 11:00:00,
2013-08-04 07:32:00,53.0,51.0,-100.00,West,270,1.0,-999.0,95,-99.99,,,-99.99,5.800000,,2013-08-04 11:32:00,
2013-08-04 07:42:00,53.0,51.0,-100.00,West,270,1.0,-999.0,95,-99.99,,,-99.99,5.800000,,2013-08-04 11:42:00,
2013-08-04 07:53:00,53.0,51.0,-100.00,West,270,1.0,-999.0,95,-99.99,,,-99.99,5.800000,,2013-08-04 11:53:00,
2013-08-04 08:00:00,54.0,52.0,-100.00,WSW,247,1.0,-999.0,92,-99.99,,,-99.99,103.239998,,2013-08-04 12:00:00,
2013-08-04 08:33:00,54.0,52.0,-100.00,WSW,247,1.0,-999.0,92,-99.99,,,-99.99,103.239998,,2013-08-04 12:33:00,
2013-08-04 08:43:00,54.0,52.0,-100.00,WSW,247,1.0,-999.0,92,-99.99,,,-99.99,103.239998,,2013-08-04 12:43:00,
2013-08-04 08:53:00,54.0,52.0,-100.00,WSW,247,1.0,-999.0,92,-99.99,,,-99.99,103.239998,,2013-08-04 12:53:00,
2013-08-04 09:00:00,61.0,54.0,-100.00,SSW,202,2.0,-999.0,78,-99.99,,,-99.99,226.199997,,2013-08-04 13:00:00,
2013-08-04 09:32:00,61.0,54.0,-100.00,SSW,202,2.0,-999.0,78,-99.99,,,-99.99,226.199997,,2013-08-04 13:32:00,
2013-08-04 09:43:00,61.0,54.0,-100.00,SSW,202,2.0,-999.0,78,-99.99,,,-99.99,226.199997,,2013-08-04 13:43:00,
2013-08-04 09:52:00,61.0,54.0,-100.00,SSW,202,2.0,-999.0,78,-99.99,,,-99.99,226.199997,,2013-08-04 13:52:00,
2013-08-04 10:00:00,64.0,54.0,-100.00,West,270,5.0,-999.0,69,-99.99,,,-99.99,381.640015,,2013-08-04 14:00:00,
2013-08-04 10:33:00,64.0,54.0,-100.00,West,270,5.0,-999.0,69,-99.99,,,-99.99,381.640015,,2013-08-04 14:33:00,
2013-08-04 10:43:00,64.0,54.0,-100.00,West,270,5.0,-999.0,69,-99.99,,,-99.99,381.640015,,2013-08-04 14:43:00,
2013-08-04 10:53:00,64.0,54.0,-100.00,West,270,5.0,-999.0,69,-99.99,,,-99.99,381.640015,,2013-08-04 14:53:00,
2013-08-04 11:00:00,66.0,52.0,-100.00,WSW,247,7.0,-999.0,61,-99.99,,,-99.99,466.320007,,2013-08-04 15:00:00,
2013-08-04 11:32:00,66.0,52.0,-100.00,WSW,247,7.0,-999.0,61,-99.99,,,-99.99,466.320007,,2013-08-04 15:32:00,
2013-08-04 11:42:00,66.0,52.0,-100.00,WSW,247,7.0,-999.0,61,-99.99,,,-99.99,466.320007,,2013-08-04 15:42:00,
2013-08-04 11:53:00,66.0,52.0,-100.00,WSW,247,7.0,-999.0,61,-99.99,,,-99.99,466.320007,,2013-08-04 15:53:00,
2013-08-04 12:00:00,68.0,51.0,-100.00,WSW,247,6.0,-999.0,53,-99.99,,,-99.99,595.080017,,2013-08-04 16:00:00,
2013-08-04 12:33:00,68.0,51.0,-100.00,WSW,247,6.0,-999.0,53,-99.99,,,-99.99,595.080017,,2013-08-04 16:33:00,
2013-08-04 12:43:00,68.0,51.0,-100.00,WSW,247,6.0,-999.0,53,-99.99,,,-99.99,595.080017,,2013-08-04 16:43:00,
2013-08-04 12:53:00,68.0,51.0,-100.00,WSW,247,6.0,-999.0,53,-99.99,,,-99.99,595.080017,,2013-08-04 16:53:00,
2013-08-04 13:00:00,70.0,50.0,-100.00,WSW,247,5.0,-999.0,48,-99.99,,,-99.99,740.080017,,2013-08-04 17:00:00,
2013-08-04 13:32:00,70.0,50.0,-100.00,WSW,247,5.0,-999.0,48,-99.99,,,-99.99,740.080017,,2013-08-04 17:32:00,
2013-08-04 13:43:00,70.0,50.0,-100.00,WSW,247,5.0,-999.0,48,-99.99,,,-99.99,740.080017,,2013-08-04 17:43:00,
2013-08-04 13:53:00,70.0,50.0,-100.00,WSW,247,5.0,-999.0,48,-99.99,,,-99.99,740.080017,,2013-08-04 17:53:00,
2013-08-04 14:00:00,72.0,50.0,-100.00,WSW,247,5.0,-999.0,46,-99.99,,,-99.99,646.119995,,2013-08-04 18:00:00,
2013-08-04 14:33:00,72.0,50.0,-100.00,WSW,247,5.0,-999.0,46,-99.99,,,-99.99,646.119995,,2013-08-04 18:33:00,
2013-08-04 14:43:00,72.0,50.0,-100.00,WSW,247,5.0,-999.0,46,-99.99,,,-99.99,646.119995,,2013-08-04 18:43:00,
2013-08-04 14:52:00,72.0,50.0,-100.00,WSW,247,5.0,-999.0,46,-99.99,,,-99.99,646.119995,,2013-08-04 18:52:00,
2013-08-04 15:00:00,73.0,50.0,-100.00,West,270,6.0,-999.0,43,-99.99,,,-99.99,777.200012,,2013-08-04 19:00:00,
2013-08-04 15:44:00,73.0,50.0,-100.00,West,270,6.0,-999.0,43,-99.99,,,-99.99,777.200012,,2013-08-04 19:44:00,
2013-08-04 15:53:00,73.0,50.0,-100.00,West,270,6.0,-999.0,43,-99.99,,,-99.99,777.200012,,2013-08-04 19:53:00,
2013-08-04 16:00:00,72.0,49.0,-100.00,WNW,292,5.0,-999.0,44,-99.99,,,-99.99,440.799988,,2013-08-04 20:00:00,
2013-08-04 16:33:00,72.0,49.0,-100.00,WNW,292,5.0,-999.0,44,-99.99,,,-99.99,440.799988,,2013-08-04 20:33:00,
2013-08-04 16:43:00,72.0,49.0,-100.00,WNW,292,5.0,-999.0,44,-99.99,,,-99.99,440.799988,,2013-08-04 20:43:00,
2013-08-04 16:53:00,72.0,49.0,-100.00,WNW,292,5.0,-999.0,44,-99.99,,,-99.99,440.799988,,2013-08-04 20:53:00,
2013-08-04 17:00:00,72.0,47.0,-100.00,WNW,292,6.0,-999.0,41,-99.99,,,-99.99,429.200012,,2013-08-04 21:00:00,
2013-08-04 17:43:00,72.0,47.0,-100.00,WNW,292,6.0,-999.0,41,-99.99,,,-99.99,429.200012,,2013-08-04 21:43:00,
2013-08-04 17:53:00,72.0,47.0,-100.00,WNW,292,6.0,-999.0,41,-99.99,,,-99.99,429.200012,,2013-08-04 21:53:00,
2013-08-04 18:00:00,71.0,44.0,-100.00,West,270,5.0,-999.0,38,-99.99,,,-99.99,357.279999,,2013-08-04 22:00:00,
2013-08-04 18:32:00,71.0,44.0,-100.00,West,270,5.0,-999.0,38,-99.99,,,-99.99,357.279999,,2013-08-04 22:32:00,
2013-08-04 18:43:00,71.0,44.0,-100.00,West,270,5.0,-999.0,38,-99.99,,,-99.99,357.279999,,2013-08-04 22:43:00,
2013-08-04 18:53:00,71.0,44.0,-100.00,West,270,5.0,-999.0,38,-99.99,,,-99.99,357.279999,,2013-08-04 22:53:00,
2013-08-04 19:00:00,69.0,48.0,-100.00,WNW,292,5.0,-999.0,47,-99.99,,,-99.99,209.960007,,2013-08-04 23:00:00,
2013-08-04 19:32:00,69.0,48.0,-100.00,WNW,292,5.0,-999.0,47,-99.99,,,-99.99,209.960007,,2013-08-04 23:32:00,
2013-08-04 19:43:00,69.0,48.0,-100.00,WNW,292,5.0,-999.0,47,-99.99,,,-99.99,209.960007,,2013-08-04 23:43:00,
2013-08-04 19:53:00,69.0,48.0,-100.00,WNW,292,5.0,-999.0,47,-99.99,,,-99.99,209.960007,,2013-08-04 23:53:00,
2013-08-04 20:00:00,66.0,50.0,-100.00,WNW,292,5.0,-999.0,56,-99.99,,,-99.99,143.839996,,2013-08-05 00:00:00,
2013-08-04 20:42:00,66.0,50.0,-100.00,WNW,292,5.0,-999.0,56,-99.99,,,-99.99,143.839996,,2013-08-05 00:42:00,
2013-08-04 20:52:00,66.0,50.0,-100.00,WNW,292,5.0,-999.0,56,-99.99,,,-99.99,143.839996,,2013-08-05 00:52:00,
2013-08-04 21:00:00,63.0,52.0,-100.00,WNW,292,2.0,-999.0,65,-99.99,,,-99.99,13.920000,,2013-08-05 01:00:00,
2013-08-04 21:33:00,63.0,52.0,-100.00,WNW,292,2.0,-999.0,65,-99.99,,,-99.99,13.920000,,2013-08-05 01:33:00,
2013-08-04 21:43:00,63.0,52.0,-100.00,WNW,292,2.0,-999.0,65,-99.99,,,-99.99,13.920000,,2013-08-05 01:43:00,
2013-08-04 21:52:00,63.0,52.0,-100.00,WNW,292,2.0,-999.0,65,-99.99,,,-99.99,13.920000,,2013-08-05 01:52:00,
2013-08-04 22:00:00,58.0,51.0,-100.00,WNW,292,1.0,-999.0,78,-99.99,,,-99.99,0.000000,,2013-08-05 02:00:00,
2013-08-04 22:33:00,58.0,51.0,-100.00,WNW,292,1.0,-999.0,78,-99.99,,,-99.99,0.000000,,2013-08-05 02:33:00,
2013-08-04 22:43:00,58.0,51.0,-100.00,WNW,292,1.0,-999.0,78,-99.99,,,-99.99,0.000000,,2013-08-05 02:43:00,
2013-08-04 22:53:00,58.0,51.0,-100.00,WNW,292,1.0,-999.0,78,-99.99,,,-99.99,0.000000,,2013-08-05 02:53:00,
2013-08-04 23:00:00,55.0,51.0,-100.00,NW,315,1.0,-999.0,84,-99.99,,,-99.99,0.000000,,2013-08-05 03:00:00,
2013-08-04 23:32:00,55.0,51.0,-100.00,NW,315,1.0,-999.0,84,-99.99,,,-99.99,0.000000,,2013-08-05 03:32:00,
2013-08-04 23:42:00,55.0,51.0,-100.00,NW,315,1.0,-999.0,84,-99.99,,,-99.99,0.000000,,2013-08-05 03:42:00,
2013-08-04 23:53:00,55.0,51.0,-100.00,NW,315,1.0,-999.0,84,-99.99,,,-99.99,0.000000,,2013-08-05 03:53:00,